{"data":{"norad_id":63761,"intl_designator":"2025-089L","name":"STARLINK-11660 [DTC]","alt_names":[],"object_type":"PAYLOAD","status":"ACTIVE","operator":null,"country":"US","launch_date":"2025-04-29","launch_site_code":"AFETR","launch_vehicle":null,"mission":null,"orbit_class":"UNKNOWN","rcs_meters":null,"size_class":null,"mass_kg":null,"dimensions":null,"purposes":["comms"],"wikipedia_slug":null,"has_3d_model":false,"image_url":null,"decayed_at":null,"tle_current":{"epoch":"2026-05-25T03:41:23.884224Z","epoch_age_seconds":58850,"freshness":"FRESH","line1":"1 63761U 25089L   26145.15374866  .00156614  00000+0  11958-2 0  9993","line2":"2 63761  42.9978 191.1309 0000862 223.8720 136.2079 15.70946965 62118","mean_motion":15.70946965,"eccentricity":8.62e-5,"inclination_deg":42.9978,"raan_deg":191.1309,"arg_perigee_deg":223.872,"mean_anomaly_deg":136.2079,"bstar":0.0011958,"rev_number":6211,"period_min":91.664456667383,"perigee_km":355.60885399551,"apogee_km":356.76985185875,"semimajor_km":6734.3263529271,"source":"CELESTRAK","updated_at":"2026-05-25T13:38:20.105156Z"}}}